sat.trackr.live / text

‹ back to catalog

STARLINK-30906

NORAD 58408 · 2023-180G

PAYLOAD ACTIVE UNKNOWN

§ Identity

Operator
Country
US
Launch date
2023-11-22
Launch site
AFETR
Launch vehicle
Mass (kg)
RCS (m²)

Purposes: comms

External: N2YO · Heavens-Above · Gunter

§ Orbital elements

Epoch: 2026-05-24T22:51:08.066016Z

Period
94.27 min
Inclination
43.0064°
Eccentricity
0.0001901
Mean motion
15.27578801 rev/d
Perigee alt
481.7 km
Apogee alt
484.4 km
Semi-major
6,861.2 km
B*
7.7647e-5
RAAN
345.5945°
Arg perigee
275.8383°
Mean anomaly
84.2252°
Rev number
13,913

§ Raw data

STARLINK-309061 58408U 23180G   26144.95217669  .00001875  00000+0  77647-4 0  99962 58408  43.0064 345.5945 0001901 275.8383  84.2252 15.27578801139130

JSON: /api/v1/satellites/58408 · /tle

For live sub-satellite position, see the globe view (requires WebGL).

§ Visibility from observer

Set your observer location to see the next 7 days of passes ≥ 10°. The values pass through the URL so the page stays shareable.

No JS? Fill the form by hand. The geolocation button needs JavaScript.